Regional Weather Roundup
Issued by NWS

Home | Current Version | Previous Version | Graphics & Text | Print | Product List | Glossary On
Versions: 1 2 3 4 5 6 7 8 9 10 11 12 13 14 15 16 17 18 19 20 21 22 23 24 25 26 27 28 29 30 31 32 33 34 35 36 37 38 39 40 41 42 43 44 45 46 47 48 49 50
365
ASUS45 KBOU 171210
RWRCO

WEATHER ROUNDUP FOR COLORADO
NATIONAL WEATHER SERVICE DENVER/BOULDER CO
500 AM MST SUN DEC 17 2017

NOTE: "FAIR" INDICATES FEW OR NO CLOUDS BELOW 12000 FEET WITH NO
SIGNIFICANT WEATHER AND/OR OBSTRUCTIONS TO VISIBILITY.

COZ001>005-013-030-031-171300-
...NORTHWEST COLORADO...

CITY           SKY/WX    TMP DP  RH WIND       PRES   REMARKS
CRAIG          CLOUDY    16  11  80 SE5       30.00R WCI   9
HAYDEN         CLOUDY    17  11  77 E6        30.00R WCI   9
MEEKER         FAIR      11   6  81 NE3       29.99R
RABBIT EARS PA FAIR      12   5  73 W13G18    29.91R WCI  -3
STEAMBOAT SPGS FAIR      11   8  89 CALM      29.98R
WALDEN         FAIR       1  -6  71 SE8       29.94R WCI -12
$$

COZ006>008-011-171300-
...WEST CENTRAL VALLEYS...

CITY           SKY/WX    TMP DP  RH WIND       PRES   REMARKS
GRAND JUNCTION FAIR      14   3  61 CALM      30.00R
MONTROSE       FAIR      16   6  65 SE7       30.02R WCI   6
EAGLE          FAIR       7   3  84 CALM      30.03R
RIFLE          FAIR      13   5  70 CALM      30.02R
DELTA          FAIR      21   5  50 CALM      30.01R
NUCLA          FAIR      21   0  39 E8        30.01S WCI  12
$$

COZ017>023-064>068-171300-
...SOUTHWEST COLORADO...

CITY           SKY/WX    TMP DP  RH WIND       PRES   REMARKS
DURANGO        FAIR      24   9  52 CALM      29.97R
CORTEZ         FAIR      24   5  44 E6        29.97R WCI  17
PAGOSA SPRINGS FAIR      24   6  46 CALM      29.97S
TELLURIDE      FAIR      25  -6  26 SE7       29.98R WCI  17
WOLF CREEK PAS MOCLDY    14   0  52 SW17      30.00R WCI  -3
$$

COZ009-010-012-014-032>034-037-058>063-171300-
...CENTRAL COLORADO...

CITY           SKY/WX    TMP DP  RH WIND       PRES   REMARKS
ASPEN          FAIR      14   3  61 S7        29.93R WCI   4
BUENA VISTA    FAIR      12   6  76 NW7       29.92R WCI   1
COPPER MTN     NOT AVBL
BERTHOUD PASS  FAIR      10   0  61 NW18      29.91R WCI  -8
COTTONWOOD PAS FAIR      32  -4  21 W5        29.91R WCI  27
GUNNISON       FAIR       6   3  87 CALM      29.99R
KREMMLING      FAIR       3  -2  78 CALM      30.00R
LEADVILLE      FAIR       7  -2  66 NE7       29.90R WCI  -5
MONARCH PASS   FAIR      18   0  45 W25       30.03S WCI  -1
SALIDA         FAIR      20   9  64 CALM      30.00R
SUNLIGHT       FAIR      14  -4  44 SW10      29.98S WCI   1
WILKERSON PASS FAIR      21   0  39 W12G18    29.92S WCI   9
$$

COZ069>075-171300-
...SAN LUIS VALLEY/SANGRE DE CRISTO MOUNTAINS...

CITY           SKY/WX    TMP DP  RH WIND       PRES   REMARKS
ALAMOSA        FAIR      14   9  80 NE5       29.94R WCI   6
DEL NORTE      CLOUDY    20   9  62 NW3       29.95R
LA VETA PASS   CLOUDY    21   3  45 SW26        N/A  WCI   4
SAGUACHE       FAIR      14   7  73 N5        29.96R WCI   6
$$

COZ035-036-038>040-171300-
...NORTHERN COLORADO FRONT RANGE...

CITY           SKY/WX    TMP DP  RH WIND       PRES   REMARKS
DENVER INTL AP FOG       28  27  96 S3        29.96R VSB 1/2
DMNS CITY PARK NOT AVBL
AURORA         CLOUDY    28  27  99 CALM      29.96R
FRONT RANGE AP CLOUDY    31  30  96 SE3       29.97R FOG
ERIE MUNI ARPT CLOUDY    32  29  90 CALM      30.02R
BOULDER MUN AP CLOUDY    32  30  93 CALM      29.96R
CENTENNIAL     CLOUDY    28  26  92 SE3       29.94R
BROOMFIELD     CLOUDY    32  28  86 NE3       29.96R
FORT COLLINS   CLOUDY   N/A N/A N/A E8        29.98R
LONGMONT       CLOUDY    33  30  89 CALM      29.99R
$$

COZ041-046-047-076>085-087-088-171300-
...PIKES PEAK/PALMER DIVIDE AND SOUTHERN FOOTHILLS...

CITY           SKY/WX    TMP DP  RH WIND       PRES   REMARKS
COLO. SPRINGS  MOCLDY    22  20  92 S8        29.95R WCI  12
A. F. ACADEMY  PTCLDY    22  20  89 N5        29.92R WCI  16
SCHRIEVER AFB  MOCLDY    25  23  93 CALM      29.95R
CHEYENNE MTN   MOCLDY    23  19  86 CALM      29.87R
ELLICOTT       CLOUDY   N/A N/A N/A NE7       29.93R
FALCON         FAIR      20  19  96 CALM      29.94R
FORT CARSON    CLOUDY    23  23 100 SW9       29.95R WCI  13
LIMON          CLOUDY    28  27  96 N7        29.96R WCI  21
MONUMENT HILL  CLOUDY    23  21  93 N3        29.93S
CANON CITY     CLOUDY    28  23  80 SE3       29.97R
WALSENBURG     FAIR      18  14  86 E5        29.96R WCI  11
TRINIDAD       FAIR      24  20  84 NW3       29.96R
$$

COZ042>045-048>051-090-091-171300-
...NORTHEAST COLORADO...

CITY           SKY/WX    TMP DP  RH WIND       PRES   REMARKS
GREELEY ARPT   CLOUDY    30  29  96 E5        30.00R WCI  25
AKRON          CLOUDY    29  28  96 E5        29.97R WCI  24
BURLINGTON     CLOUDY    32  30  92 N12       29.96R WCI  23
WRAY           CLOUDY   N/A N/A N/A N8        30.00R FOG
YUMA           CLOUDY    30  30 100 N8        29.99R FOG     WCI  23
STERLING       CLOUDY    32  32 100 CALM      29.98R
HOLYOKE        MIX PCPN  34  32  93 N8        29.99R WCI  27
FORT MORGAN    CLOUDY    30  29  96 NE6       29.99R FOG     WCI  24
$$

COZ086-089-092>099-171300-
...SOUTHEAST COLORADO...

CITY           SKY/WX    TMP DP  RH WIND       PRES   REMARKS
PUEBLO         CLOUDY    28  22  78 W3        29.99R
LA JUNTA       CLOUDY    33  27  78 NE5       29.99R WCI  29
LAMAR          CLOUDY    33  26  75 N9        29.97R WCI  25
SPRINGFIELD      N/A     29  26  89 N21G31    29.93R WCI  16
$$




USA.gov is the U.S. government's official web portal to all federal, state and local government web resources and services.